RH
49 51 59 69 80 83 80 83 83 86 84 80 79 81 83 87 94 94 86 83 74 68 69 72 73 71 71 69 68 68 68 66 65
56 56 57 59 61 62 72 81 82 85 87 81 82 85 86 91 96 95 87 83 77 72 67 68 71 70 69 69 68 68 67 67 67
54 56 57 56 58 71 68 72 79 80 83 83 87 88 92 89 96 94 89 83 76 70 69 69 69 69 68 67 68 66 66 67 69
55 57 60 61 62 60 65 72 74 81 81 83 88 91 94 96 93 86 90 82 76 71 71 72 71 70 68 69 69 65 66 66 70
59 60 61 60 61 61 61 63 64 73 85 85 87 92 95 97 96 92 89 82 75 72 73 74 73 70 70 71 67 68 67 66 70
62 63 62 61 59 61 61 63 65 68 80 91 89 91 95 98 98 92 89 83 74 69 71 75 73 72 71 74 72 72 70 69 71
64 69 64 66 61 63 61 62 65 73 90 89 91 94 89 97 92 92 90 86 80 74 72 76 77 75 76 77 72 70 72 70 71
74 77 77 77 66 72 72 76 82 86 89 90 93 86 91 95 95 91 92 88 82 77 73 78 79 79 79 78 74 70 72 70 73
82 84 83 81 79 83 89 92 87 85 84 85 88 90 93 94 94 93 94 91 84 78 75 76 78 81 80 76 78 78 77 78 78
86 86 86 85 83 82 84 90 88 89 86 86 88 91 93 92 92 94 95 92 90 84 78 75 72 77 77 78 80 81 82 81 82
84 87 87 88 87 83 86 88 91 90 91 87 86 86 89 90 93 93 92 96 92 90 83 78 73 74 77 76 80 82 83 83 83
86 92 94 91 90 90 90 91 92 93 87 90 86 87 86 89 95 94 94 94 98 95 88 81 78 78 77 75 77 83 84 85 85
93 96 96 94 96 98 98 97 95 96 96 93 91 91 90 89 91 95 95 93 94 95 94 91 88 81 80 77 75 80 86 87 87
95 97 97 96 98 93 84 82 88 98 95 92 88 90 91 89 84 95 93 95 95 96 95 95 94 96 84 78 76 75 82 88 89
96 97 96 96 93 81 74 78 78 92 98 89 85 90 90 93 96 95 91 97 96 97 96 98 98 98 94 83 88 79 81 83 85
96 97 96 95 95 84 78 84 89 89 91 99 92 91 92 93 97 84 99 96 96 98 98 98 98 98 98 95 92 93 93 90 84
90 96 96 96 97 84 84 88 95 93 91 97 97 95 93 94 90 95 95 94 99 98 98 98 98 98 98 99 96 93 89 91 93
94 94 93 95 96 98 93 93 93 97 91 94 96 95 94 94 97 96 97 97 98 98 97 96 96 97 98 98 98 94 90 86 87
91 95 93 92 93 94 96 84 93 94 94 94 93 97 96 98 96 94 97 96 96 97 98 96 94 94 96 97 97 95 93 89 87
91 92 95 93 93 91 92 91 92 96 99 96 96 95 96 96 98 97 96 96 98 97 97 95 95 92 94 96 95 92 87 84 83
Wind_Speed
15 15 15 15 15 14 13 14 12 11 12 14 15 14 11 9 6 5 6 6 9 12 12 11 9 9 9 9 9 9 8 7 6
15 15 15 15 15 15 15 16 14 14 12 14 15 14 11 7 6 5 6 6 14 16 13 12 12 11 11 10 10 10 9 8 7
14 14 14 15 17 14 15 15 15 13 14 14 14 14 12 8 6 6 5 9 13 15 15 13 13 12 12 12 11 11 10 9 8
14 15 15 15 17 16 16 14 15 14 15 14 14 13 12 6 5 7 5 13 13 17 16 15 14 14 14 13 13 12 12 11 9
13 13 14 15 15 15 15 16 16 17 18 15 13 12 13 7 6 6 5 15 17 17 19 17 17 16 16 15 14 14 13 12 11
7 11 13 15 15 15 15 15 16 16 14 14 12 11 5 6 6 5 12 18 18 18 20 19 19 18 18 16 16 15 14 14 13
7 8 12 13 13 14 14 14 13 10 4 5 9 5 7 6 8 7 16 21 21 21 19 20 20 19 18 18 17 18 16 16 15
4 3 4 4 8 4 6 6 4 6 5 4 4 6 7 6 6 10 17 22 23 23 22 18 20 21 20 19 20 19 18 18 16
4 3 4 4 4 5 5 4 5 6 6 6 6 6 6 5 5 8 16 20 24 24 24 21 20 23 22 22 21 19 18 18 16
4 4 4 4 4 4 5 5 5 5 6 5 6 6 7 9 6 5 12 19 23 26 25 26 24 25 25 23 21 20 20 19 18
4 4 4 4 4 5 4 5 5 5 5 6 6 7 7 8 8 5 6 13 22 25 26 26 25 26 27 25 22 21 21 20 19
5 4 4 5 4 6 4 5 4 5 5 6 6 6 8 7 8 6 4 6 16 18 24 25 25 24 28 27 25 23 22 21 20
4 4 4 5 5 4 4 4 6 5 5 6 6 6 6 8 9 5 5 5 5 9 19 21 21 22 26 28 26 23 22 21 20
4 4 4 6 4 4 7 8 7 8 7 7 7 7 7 8 7 6 6 6 6 5 10 11 12 12 20 27 27 22 21 20 20
3 4 5 5 4 5 8 9 9 8 8 8 9 8 7 6 6 6 5 5 8 8 8 4 4 5 10 20 24 18 14 17 19
4 3 4 5 4 5 6 6 8 7 5 4 5 5 5 5 4 6 4 6 9 6 6 5 4 4 7 7 8 20 20 24 21
3 4 4 5 4 6 6 7 5 3 3 3 3 5 5 3 3 4 3 3 2 2 5 5 7 6 7 9 10 14 12 16 5
3 4 4 4 4 4 5 5 6 6 7 3 2 4 3 4 3 6 4 4 3 4 5 7 8 7 6 5 3 1 5 17 16
4 4 4 4 3 4 4 5 5 5 7 4 2 4 2 4 4 3 4 4 5 6 6 7 7 7 5 7 9 11 7 8 10
5 5 4 5 3 4 5 6 6 3 3 4 3 1 2 2 2 2 1 3 4 5 5 5 4 5 4 4 6 8 10 8 7
Wind_Direction
330 329 333 333 330 312 286 278 272 266 267 254 242 232 225 209 205 211 227 223 241 241 224 215 215 211 212 200 194 189 187 187 180
340 336 334 335 325 311 307 289 276 271 269 264 244 235 222 200 202 215 226 238 249 232 227 220 216 213 213 206 204 199 200 195 187
358 358 356 346 345 332 308 308 297 278 271 270 251 240 228 206 203 201 216 237 241 224 221 219 218 217 207 211 209 210 210 206 195
360 1 358 358 358 357 352 334 326 304 276 264 261 248 236 214 208 212 208 227 235 230 223 212 217 216 216 212 212 216 213 213 205
0 1 355 354 354 356 355 357 355 346 333 273 255 251 242 228 216 218 210 223 231 233 241 215 217 218 218 216 218 215 215 214 210
358 359 360 357 352 352 349 351 353 353 348 327 272 253 240 219 221 223 226 229 232 234 237 227 214 218 217 217 217 217 218 216 213
1 356 359 356 351 348 344 342 345 347 330 330 324 279 239 221 227 225 226 233 234 235 238 237 222 214 215 214 218 221 218 220 218
350 339 342 337 347 342 340 337 329 326 325 318 303 303 288 249 233 229 226 235 237 236 233 236 223 221 212 214 217 220 222 223 220
340 336 331 333 328 330 328 320 313 315 310 301 300 293 289 269 249 241 232 235 241 237 237 234 229 219 217 214 216 217 219 221 221
331 331 332 329 327 326 319 316 312 308 305 299 292 295 289 283 260 242 240 237 243 247 237 238 235 221 220 218 216 216 217 219 221
338 330 327 323 324 321 310 308 304 302 300 299 289 283 283 282 274 252 241 240 246 244 246 234 234 227 221 221 219 217 217 218 220
328 322 322 317 311 302 304 304 305 306 303 285 285 279 275 274 268 256 241 232 228 240 252 250 233 229 227 223 223 218 217 218 220
334 340 329 311 311 306 316 337 329 309 299 295 287 280 270 267 263 251 248 248 236 228 244 250 249 240 232 229 227 223 219 216 220
338 338 316 320 311 329 349 344 328 319 305 298 290 277 268 263 263 251 250 240 239 220 224 227 238 259 253 239 233 228 223 221 219
343 339 327 321 322 347 350 333 334 310 291 293 288 274 265 255 256 253 253 230 242 213 204 162 205 236 292 240 232 248 252 231 225
338 342 328 323 329 324 329 318 317 328 322 314 299 289 272 275 273 279 237 238 239 211 176 151 151 126 59 347 261 249 240 231 229
325 342 320 324 325 324 332 332 323 283 315 296 274 328 330 324 17 355 353 281 307 95 70 150 150 159 133 206 235 223 220 237 249
306 313 319 320 323 317 316 313 330 315 319 250 249 335 321 321 339 22 352 23 20 72 75 57 52 48 57 54 349 128 192 169 153
306 294 301 313 311 318 305 315 309 314 324 323 185 222 264 319 343 14 13 45 40 48 66 70 64 62 60 67 73 63 83 99 116
281 279 289 296 305 302 303 315 323 305 303 324 321 316 277 235 286 293 10 59 53 55 62 76 74 73 70 46 54 79 89 77 77